Location: Geyikbay?r?
(36.8756°N, 30.4583°E)
Time: 07:32:15
(UTC+00:00)

Cosmos 1535 Rocket - Pass Details

Date: 05 August 2024
Orbit: 949 x 1003 km, 83.0° (Epoch: 10 September)

Event Time Altitude Azimuth Distance (km) Brightness Sun altitude
Exits shadow 18:59:25 31° 169° (SSE) 1,617 5.2 -21.0°
Maximum altitude 19:02:30 70° 93° (E) 1,027 4.4 -21.5°
Drops below altitude 10° 19:08:43 10° 11° (NNE) 2,737 7.2 -22.4°
Sets 19:11:16 0° 10° (N) 3,696 8.0 -22.7°
